Main page
Satellite images Climate Cyclones Lightning AirportsFAQ Languages Contact Newsletter About
Weather : Europe Africa North America South America Asia Australia-Oceania Others

, Khon Kaen, Khon Kaen Airport

48381

latitude: , longitude: Thailand, elevation: 16-26N m


METAR: VTUK 211700Z 00000KT CAVOK 27/26 Q1008 NOSIG